Location: Frizzleburg
(41.0764°N, 80.4548°W)
Time: 11:18:44
(UTC+00:00)

ASTEX 1 - Pass Details

Date: 17 November 2019
Orbit: 721 x 742 km, 92.7° (Epoch: 06 December)

Event Time Altitude Azimuth Distance (km) Brightness Sun altitude
Rises 09:48:06 0° 169° (S) 3,144 6.8 -27.0°
Reaches altitude 10° 09:50:23 10° 168° (SSE) 2,230 6.0 -26.5°
Maximum altitude 09:55:19 80° 83° (E) 754 3.4 -25.6°
Drops below altitude 10° 10:00:19 10° 357° (N) 2,258 5.8 -24.7°
Sets 10:02:38 0° 356° (N) 3,188 6.6 -24.2°
